TimePST,TemperatureF,Dew PointF,Humidity,Sea Level PressureIn,VisibilityMPH,Wind Direction,Wind SpeedMPH,Gust SpeedMPH,PrecipitationIn,Events,Conditions,WindDirDegrees,DateUTC
12:27 AM,50.0,46.4,87,30.14,10.0,SSW,5.8,-,N/A,,Mostly Cloudy,200,2012-11-24 08:27:00
12:53 AM,50.0,46.0,86,30.17,10.0,Calm,Calm,-,N/A,,Overcast,0,2012-11-24 08:53:00
1:53 AM,48.9,45.0,86,30.19,10.0,Calm,Calm,-,N/A,,Overcast,0,2012-11-24 09:53:00
2:53 AM,48.0,46.0,93,30.21,10.0,Calm,Calm,-,0.00,,Overcast,0,2012-11-24 10:53:00
3:03 AM,48.2,46.4,93,30.19,10.0,Calm,Calm,-,N/A,,Overcast,0,2012-11-24 11:03:00
3:53 AM,48.0,45.0,89,30.21,10.0,Calm,Calm,-,0.00,Rain,Light Rain,0,2012-11-24 11:53:00
4:13 AM,46.4,44.6,93,30.20,10.0,Calm,Calm,-,0.00,,Overcast,0,2012-11-24 12:13:00
4:30 AM,46.4,44.6,93,30.20,10.0,Calm,Calm,-,0.00,,Mostly Cloudy,0,2012-11-24 12:30:00
4:53 AM,46.0,44.1,93,30.22,10.0,Calm,Calm,-,0.00,,Mostly Cloudy,0,2012-11-24 12:53:00
5:09 AM,44.6,42.8,93,30.21,9.0,Calm,Calm,-,N/A,,Scattered Clouds,0,2012-11-24 13:09:00
5:53 AM,43.0,41.0,93,30.23,6.0,Calm,Calm,-,N/A,,Partly Cloudy,0,2012-11-24 13:53:00
6:53 AM,44.1,43.0,96,30.25,10.0,Calm,Calm,-,N/A,,Overcast,0,2012-11-24 14:53:00
7:53 AM,44.1,42.1,93,30.25,10.0,Calm,Calm,-,N/A,,Clear,0,2012-11-24 15:53:00
8:53 AM,45.0,44.1,97,30.27,10.0,Calm,Calm,-,N/A,,Scattered Clouds,0,2012-11-24 16:53:00
9:53 AM,46.0,44.1,93,30.27,10.0,Calm,Calm,-,N/A,,Mostly Cloudy,0,2012-11-24 17:53:00
10:06 AM,46.4,44.6,93,30.26,10.0,Calm,Calm,-,N/A,,Mostly Cloudy,0,2012-11-24 18:06:00
10:53 AM,48.0,43.0,83,30.27,10.0,Calm,Calm,-,N/A,,Overcast,0,2012-11-24 18:53:00
11:53 AM,50.0,44.1,80,30.26,10.0,South,4.6,-,N/A,,Scattered Clouds,170,2012-11-24 19:53:00
12:53 PM,50.0,42.1,74,30.26,10.0,SSW,3.5,-,N/A,,Partly Cloudy,200,2012-11-24 20:53:00
1:29 PM,50.0,42.8,76,30.24,10.0,SSW,3.5,-,N/A,,Mostly Cloudy,200,2012-11-24 21:29:00
1:53 PM,50.0,41.0,71,30.25,10.0,SSW,3.5,-,N/A,,Mostly Cloudy,210,2012-11-24 21:53:00
2:00 PM,50.0,41.0,71,30.24,10.0,Calm,Calm,-,N/A,,Clear,0,2012-11-24 22:00:00
2:07 PM,50.0,42.8,76,30.24,10.0,Calm,Calm,-,N/A,,Mostly Cloudy,0,2012-11-24 22:07:00
2:45 PM,51.8,41.0,67,30.24,10.0,Calm,Calm,-,N/A,,Clear,0,2012-11-24 22:45:00
2:53 PM,50.0,41.0,71,30.25,10.0,Calm,Calm,-,N/A,,Clear,0,2012-11-24 22:53:00
3:53 PM,46.9,41.0,80,30.25,10.0,Calm,Calm,-,N/A,,Clear,0,2012-11-24 23:53:00
4:53 PM,46.0,42.1,86,30.25,10.0,Calm,Calm,-,N/A,,Overcast,0,2012-11-25 00:53:00
5:10 PM,46.4,42.8,87,30.24,10.0,Calm,Calm,-,N/A,,Overcast,0,2012-11-25 01:10:00
5:53 PM,46.0,42.1,86,30.25,10.0,Calm,Calm,-,N/A,,Overcast,0,2012-11-25 01:53:00
6:00 PM,46.4,41.0,81,30.23,10.0,Calm,Calm,-,N/A,,Scattered Clouds,0,2012-11-25 02:00:00
6:53 PM,46.0,42.1,86,30.25,9.0,Calm,Calm,-,N/A,,Overcast,0,2012-11-25 02:53:00
7:53 PM,45.0,41.0,86,30.25,8.0,Calm,Calm,-,N/A,,Overcast,0,2012-11-25 03:53:00
8:53 PM,45.0,41.0,86,30.25,8.0,Calm,Calm,-,N/A,,Overcast,0,2012-11-25 04:53:00
9:53 PM,44.1,39.9,85,30.27,6.0,Calm,Calm,-,N/A,,Clear,0,2012-11-25 05:53:00
10:07 PM,42.8,39.2,87,30.26,2.5,Calm,Calm,-,N/A,,Partly Cloudy,0,2012-11-25 06:07:00
10:13 PM,42.8,39.2,87,30.26,1.0,Calm,Calm,-,N/A,,Mist,0,2012-11-25 06:13:00
10:21 PM,42.8,39.2,87,30.26,0.8,Calm,Calm,-,N/A,,Mist,0,2012-11-25 06:21:00
10:34 PM,41.0,37.4,87,30.26,0.5,Calm,Calm,-,N/A,Fog,Fog,0,2012-11-25 06:34:00
10:53 PM,41.0,37.9,89,30.28,0.2,Calm,Calm,-,N/A,Fog,Fog,0,2012-11-25 06:53:00
11:53 PM,41.0,37.9,89,30.30,1.0,Calm,Calm,-,N/A,,Overcast,0,2012-11-25 07:53:00